TimeEST,TemperatureF,Dew PointF,Humidity,Sea Level PressureIn,VisibilityMPH,Wind Direction,Wind SpeedMPH,Gust SpeedMPH,PrecipitationIn,Events,Conditions,WindDirDegrees,DateUTC
12:13 AM,57.6,38.3,49,29.84,10.0,South,16.1,21.9,N/A,,Overcast,190,2012-11-12 05:13:00
12:34 AM,58.3,38.1,47,29.85,10.0,SSW,18.4,21.9,N/A,,Overcast,200,2012-11-12 05:34:00
12:54 AM,57.7,39.2,50,29.84,10.0,SSW,15.0,24.2,N/A,Rain,Light Rain,200,2012-11-12 05:54:00
1:14 AM,57.4,39.6,51,29.83,10.0,SSW,13.8,19.6,N/A,,Overcast,200,2012-11-12 06:14:00
1:34 AM,56.8,40.1,54,29.83,10.0,South,15.0,21.9,N/A,,Overcast,190,2012-11-12 06:34:00
1:54 AM,56.3,41.2,57,29.83,10.0,South,19.6,24.2,N/A,Rain,Rain,190,2012-11-12 06:54:00
2:14 AM,56.8,40.8,55,29.82,10.0,South,15.0,23.0,N/A,,Overcast,190,2012-11-12 07:14:00
2:34 AM,56.5,41.7,58,29.81,10.0,SSW,18.4,29.9,N/A,,Overcast,200,2012-11-12 07:34:00
2:54 AM,56.3,42.1,59,29.81,10.0,SSW,17.3,25.3,N/A,,Overcast,200,2012-11-12 07:54:00
3:14 AM,56.3,41.9,59,29.80,10.0,SSW,11.5,21.9,N/A,,Overcast,200,2012-11-12 08:14:00
3:34 AM,55.4,43.2,63,29.80,10.0,South,15.0,21.9,N/A,Rain,Light Rain,190,2012-11-12 08:34:00
3:54 AM,55.0,43.5,65,29.79,10.0,SSW,13.8,23.0,N/A,Rain,Light Rain,200,2012-11-12 08:54:00
4:14 AM,55.9,43.0,62,29.79,10.0,SSW,12.7,-,N/A,,Overcast,200,2012-11-12 09:14:00
4:34 AM,55.8,43.2,63,29.79,10.0,SSW,13.8,21.9,N/A,Rain,Light Rain,200,2012-11-12 09:34:00
4:54 AM,54.9,45.1,70,29.81,10.0,SSW,11.5,20.7,N/A,Rain,Rain,210,2012-11-12 09:54:00
5:14 AM,54.0,47.1,78,29.81,10.0,SSW,9.2,-,N/A,Rain,Light Rain,210,2012-11-12 10:14:00
5:34 AM,52.7,49.1,88,29.81,7.0,SSW,12.7,-,0.01,Rain,Rain,210,2012-11-12 10:34:00
5:54 AM,52.2,49.6,91,29.81,10.0,SSW,11.5,-,0.04,Rain,Rain,200,2012-11-12 10:54:00
6:14 AM,52.0,50.0,93,29.82,10.0,SSW,11.5,-,N/A,Rain,Light Rain,200,2012-11-12 11:14:00
6:34 AM,51.8,50.0,94,29.82,10.0,SSW,13.8,-,0.02,Rain,Light Rain,210,2012-11-12 11:34:00
6:54 AM,51.4,49.8,94,29.82,10.0,SSW,11.5,-,0.03,Rain,Light Rain,210,2012-11-12 11:54:00
7:14 AM,51.3,49.6,94,29.81,10.0,SSW,10.4,-,N/A,Rain,Light Rain,200,2012-11-12 12:14:00
7:34 AM,51.1,49.5,94,29.82,10.0,SSW,11.5,16.1,0.01,Rain,Light Rain,210,2012-11-12 12:34:00
7:53 AM,50.9,49.5,95,29.83,7.0,SW,21.9,27.6,0.02,Rain,Light Rain,230,2012-11-12 12:53:00
8:14 AM,48.0,45.0,89,29.84,10.0,WSW,11.5,20.7,N/A,Rain,Rain,240,2012-11-12 13:14:00
8:34 AM,47.3,44.6,90,29.84,10.0,WSW,12.7,-,N/A,Rain,Light Rain,240,2012-11-12 13:34:00
8:53 AM,46.8,44.6,92,29.82,10.0,WSW,9.2,-,0.01,Rain,Light Rain,240,2012-11-12 13:53:00
9:14 AM,46.6,44.2,92,29.83,10.0,WSW,9.2,-,N/A,Rain,Light Rain,250,2012-11-12 14:14:00
9:34 AM,46.8,45.1,94,29.84,10.0,SW,11.5,-,N/A,Rain,Rain,230,2012-11-12 14:34:00
9:53 AM,46.4,44.1,92,29.83,10.0,SW,10.4,-,N/A,Rain,Rain,230,2012-11-12 14:53:00
10:14 AM,45.9,43.7,92,29.84,10.0,SW,10.4,-,N/A,Rain,Rain,220,2012-11-12 15:14:00
10:34 AM,45.7,43.7,93,29.85,10.0,SW,11.5,-,N/A,Rain,Rain,220,2012-11-12 15:34:00
10:53 AM,45.1,42.8,91,29.86,10.0,SW,16.1,-,N/A,Rain,Rain,220,2012-11-12 15:53:00
11:14 AM,45.0,42.8,92,29.85,7.0,SSW,10.4,-,N/A,Rain,Light Rain,210,2012-11-12 16:14:00
11:34 AM,44.6,42.3,91,29.86,10.0,WSW,16.1,20.7,N/A,Rain,Light Rain,250,2012-11-12 16:34:00
11:54 AM,43.9,40.6,88,29.86,10.0,SW,15.0,19.6,N/A,Rain,Light Rain,230,2012-11-12 16:54:00
12:14 PM,42.1,39.2,90,29.86,10.0,West,13.8,-,0.01,Rain,Light Rain,270,2012-11-12 17:14:00
12:34 PM,41.9,37.8,85,29.87,10.0,WSW,18.4,25.3,0.01,,Overcast,240,2012-11-12 17:34:00
12:54 PM,41.2,36.7,84,29.87,10.0,WSW,12.7,-,0.01,,Overcast,240,2012-11-12 17:54:00
1:14 PM,40.5,35.2,82,29.87,10.0,WSW,15.0,23.0,N/A,,Overcast,240,2012-11-12 18:14:00
1:34 PM,40.1,34.7,81,29.88,10.0,WSW,18.4,24.2,N/A,,Overcast,240,2012-11-12 18:34:00
1:54 PM,39.2,34.0,82,29.89,10.0,West,16.1,21.9,N/A,,Overcast,260,2012-11-12 18:54:00
2:14 PM,37.8,32.2,80,29.90,10.0,West,17.3,25.3,N/A,,Overcast,260,2012-11-12 19:14:00
2:34 PM,38.3,31.8,77,29.90,10.0,West,16.1,23.0,N/A,,Overcast,260,2012-11-12 19:34:00
2:54 PM,38.7,31.1,74,29.91,10.0,West,12.7,18.4,N/A,,Overcast,260,2012-11-12 19:54:00
3:14 PM,37.4,30.7,77,29.91,10.0,WSW,16.1,23.0,N/A,,Overcast,250,2012-11-12 20:14:00
3:34 PM,36.3,29.8,77,29.93,10.0,WSW,12.7,18.4,N/A,,Overcast,250,2012-11-12 20:34:00
3:54 PM,36.5,29.1,75,29.93,10.0,WSW,9.2,19.6,N/A,,Overcast,240,2012-11-12 20:54:00
4:14 PM,36.0,27.9,72,29.94,10.0,WSW,15.0,21.9,N/A,,Overcast,240,2012-11-12 21:14:00
4:34 PM,35.6,25.3,66,29.95,10.0,WSW,19.6,27.6,N/A,,Overcast,250,2012-11-12 21:34:00
4:54 PM,35.1,24.8,66,29.96,10.0,West,13.8,-,N/A,,Overcast,260,2012-11-12 21:54:00
5:14 PM,34.9,24.8,67,29.97,10.0,West,19.6,23.0,N/A,,Overcast,260,2012-11-12 22:14:00
5:34 PM,34.7,23.9,65,29.98,10.0,WSW,16.1,-,N/A,,Overcast,250,2012-11-12 22:34:00
5:54 PM,34.2,23.2,64,30.00,10.0,WSW,21.9,25.3,N/A,,Overcast,250,2012-11-12 22:54:00
6:14 PM,33.4,22.1,63,30.00,10.0,West,12.7,23.0,N/A,,Overcast,260,2012-11-12 23:14:00
6:34 PM,33.4,21.9,63,30.01,10.0,West,16.1,21.9,N/A,,Overcast,260,2012-11-12 23:34:00
6:54 PM,33.4,22.3,64,30.02,10.0,West,16.1,21.9,N/A,,Overcast,260,2012-11-12 23:54:00
7:14 PM,33.3,22.5,65,30.03,10.0,West,12.7,-,N/A,,Overcast,260,2012-11-13 00:14:00
7:34 PM,33.1,22.3,65,30.03,10.0,West,19.6,26.5,N/A,,Overcast,260,2012-11-13 00:34:00
7:54 PM,32.5,22.1,65,30.04,10.0,West,17.3,21.9,N/A,,Overcast,260,2012-11-13 00:54:00
8:14 PM,32.2,22.5,67,30.05,10.0,WSW,17.3,-,N/A,Snow,Light Snow,250,2012-11-13 01:14:00
8:33 PM,32.0,23.0,69,30.06,10.0,WSW,18.4,27.6,N/A,Snow,Light Snow,240,2012-11-13 01:33:00
8:54 PM,31.6,22.5,69,30.06,10.0,WSW,17.3,20.7,N/A,,Overcast,240,2012-11-13 01:54:00
9:14 PM,30.6,21.9,70,30.06,10.0,WSW,15.0,19.6,N/A,,Mostly Cloudy,240,2012-11-13 02:14:00
9:33 PM,30.7,21.7,69,30.07,10.0,WSW,12.7,-,N/A,,Scattered Clouds,240,2012-11-13 02:33:00
9:54 PM,31.5,21.0,65,30.09,10.0,WSW,13.8,-,N/A,,Overcast,240,2012-11-13 02:54:00
10:14 PM,31.8,20.5,63,30.10,10.0,WSW,13.8,25.3,N/A,,Overcast,250,2012-11-13 03:14:00
10:34 PM,31.8,21.0,64,30.11,10.0,WSW,17.3,27.6,N/A,,Overcast,240,2012-11-13 03:34:00
10:54 PM,31.5,22.1,68,30.13,10.0,West,18.4,27.6,N/A,,Overcast,260,2012-11-13 03:54:00
11:14 PM,30.7,21.7,69,30.13,10.0,West,12.7,23.0,N/A,Snow,Light Snow,260,2012-11-13 04:14:00
11:34 PM,30.6,21.4,69,30.14,10.0,West,9.2,-,N/A,,Overcast,260,2012-11-13 04:34:00
11:54 PM,30.4,21.0,68,30.15,10.0,West,12.7,23.0,N/A,,Overcast,270,2012-11-13 04:54:00